Regional Weather Roundup
Issued by NWS

Home | Current Version | Previous Version | Graphics & Text | Print | Product List | Glossary On
Versions: 1 2 3 4 5 6 7 8 9 10 11 12 13 14 15 16 17 18 19 20 21 22 23 24 25 26 27 28 29 30 31 32 33 34 35 36 37 38 39 40 41 42 43 44 45 46 47 48 49 50
000
ASUS45 KABQ 051401
RWRNM
NEW MEXICO REGIONAL WEATHER ROUNDUP
NATIONAL WEATHER SERVICE ALBUQUERQUE NM
700 AM MST MON DEC 05 2016

NOTE: "FAIR" MEANS FEW OR NO CLOUDS BELOW 12,000 FEET AGL WITH NO
       SIGNIFICANT WEATHER OR OBSTRUCTIONS TO VISION.

      THIS PRODUCT IS RELEASED AS TWO VERSIONS.  ONE VERSION NEAR
      THE TOP OF THE HOUR CONTAINING PRELIMINARY DATA FROM ALBUQUERQUE
      AND OTHER STATIONS.  A FINAL VERSION WITH ADDITIONAL DATA IS
      ISSUED ABOUT 10 MINUTES AFTER THE HOUR.

NMZ501-503-504-510>518-051500-
NORTHWEST PLATEAU/NORTHCENTRAL MOUNTAINS

CITY           SKY/WX    TMP DP  RH WIND       PRES   REMARKS
FARMINGTON     FAIR      21  18  88 E8        29.90F WCI  11
LOS ALAMOS     FAIR      29  16  58 CALM      29.90F
SANTA FE       FAIR      22  15  75 N8        29.89F WCI  12
TAOS           FAIR      14   1  57 CALM      29.90F
ANGEL FIRE     FAIR      28  11  50 NE3       29.86S

$$
NMZ402-403-502-505>509-051500-
WESTCENTRAL MOUNTAINS/SOUTHWEST MOUNTAINS

CITY           SKY/WX    TMP DP  RH WIND       PRES   REMARKS
GALLUP         FAIR      15  12  88 CALM      29.95R
GRANTS         FAIR      16  13  89 NW7       29.96S WCI   6
SILVER CITY    FAIR      30  26  83 W10       29.96S WCI  21

$$
NMZ407-409-411-412-051500-
SOUTHERN DESERTS

CITY           SKY/WX    TMP DP  RH WIND       PRES   REMARKS
DEMING         FAIR      28  24  85 SW7       29.96R WCI  21
LAS CRUCES     FAIR      33  26  73 W6        29.95S WCI  28
HOLLOMAN AFB   FAIR      26  21  79 CALM      29.97S
T OR C         FAIR      27  17  66 CALM      29.92S

$$
NMZ519>523-051500-
CENTRAL VALLEYS/CENTRAL HIGHLANDS

CITY           SKY/WX    TMP DP  RH WIND       PRES   REMARKS
ALBUQUERQUE    FAIR      28  14  55 W3        29.94R
DOUBLE EAGLE   CLEAR     21  12  68 W6        29.93S WCI  14
MORIARTY ARPT  FAIR      14   9  79 CALM      29.90S
CLINES CORNERS FAIR      21   8  57 NW8       29.87F WCI  11
BELEN          FAIR      20  15  79 NW3       29.94S
SOCORRO        FAIR      22  15  77 CALM      29.94S

$$
NMZ524>526-539-540-051500-
SOUTHCENTRAL MOUNTAINS

CITY           SKY/WX    TMP DP  RH WIND       PRES   REMARKS
RUIDOSO        FAIR      30  16  55 NE6       29.91F WCI  24

$$
NMZ527>531-051500-
NORTHEAST HIGHLANDS/NORTHEAST PLAINS

CITY           SKY/WX    TMP DP  RH WIND       PRES   REMARKS
LAS VEGAS      FAIR      34  13  41 SW20      29.78R WCI  23
RATON          FAIR      16  10  77 NE10      29.72S WCI   4
CLAYTON        FAIR      46  21  37 W15       29.66R

$$
NMZ532>537-051500-
EASTCENTRAL PLAINS

CITY           SKY/WX    TMP DP  RH WIND       PRES   REMARKS
TUCUMCARI      FAIR      34  21  59 SW15      29.73S WCI  24
CANNON AFB     FAIR      30  30 100 W12       29.79F WCI  20
CLOVIS AIRPORT FAIR      30  25  80 SW10      29.78F WCI  21

$$
NMZ028-029-538-051500-
SOUTHEAST PLAINS

CITY           SKY/WX    TMP DP  RH WIND       PRES   REMARKS
ROSWELL        FAIR      23  20  88 CALM      29.85F
ARTESIA        FOG       23  23 100 S3        29.87F VSB<1/4
CARLSBAD       FAIR      27  27 100 NW5       29.85F WCI  22
HOBBS          CLEAR     32  32 100 SW7       29.85F WCI  26


$$



USA.gov is the U.S. government's official web portal to all federal, state and local government web resources and services.